Simultaneous Nadir Overpasses (SNOs) Predictions

Prediction of SNOs between GOES-16 and METOP-B Satellite Orbit:

Table of predicted SNOs for the next 14.0 days since TLE Epoch: 7/25/2020
Index Date Time (GOES-16) GOES-16 Lat,Lon METOP-B Lat,Lon Distance(km) Time Diff (sec)
1 07/27/2020 02:32:36 0.03, -75.19 -0.00, -75.26 8.07 80
2 07/29/2020 14:28:08 -0.03, -75.21 -0.12, -74.83 43.35 80
3 07/31/2020 02:49:47 0.02, -75.21 -0.90, -79.42 480.23 80
4 08/01/2020 02:26:27 0.03, -75.21 0.18, -74.42 89.50 80
5 08/02/2020 14:47:58 -0.03, -75.23 0.84, -78.98 428.04 80
6 08/03/2020 14:24:39 -0.04, -75.24 -0.30, -73.99 142.13 80
7 08/05/2020 02:46:18 0.03, -75.25 -0.72, -78.59 380.09 80
8 08/06/2020 02:22:59 0.04, -75.27 0.42, -73.60 190.55 80
9 08/07/2020 14:44:30 -0.04, -75.30 0.59, -78.16 325.31 80
